NK0V Weather Reports


time (UTC)temp
C
wind
direction
speed
KPH
gust
KPH
rain 1hr
cm
rain 24hr
cm
rain mn
cm
humidity
%
barometer
mb
20260906193103 18 265 3.2 12.9 3.99 4.32 4.32 87 1019.3
20260906192556 19 269 3.2 14.5 4.09 4.22 4.22 86 1019.4
20260906192056 19 223 4.8 27.4 3.99 4.11 4.11 85 1019.4
20260906191600 20 156 6.4 27.4 3.86 3.99 3.99 85 1019.5
20260906191056 20 146 8.0 25.7 3.71 3.84 3.84 84 1019.5
20260906190600 20 116 11.3 29.0 3.56 3.68 3.68 83 1018.9
20260906190111 21 138 12.9 29.0 3.35 3.48 3.48 82 1018.5
20260906185601 21 107 9.7 27.4 3.05 3.17 3.17 81 1018.6
20260906185056 21 135 12.9 32.2 2.64 2.77 2.77 80 1018.7
20260906184604 22 126 16.1 38.6 2.16 2.29 2.29 79 1018.8
20260906184057 22 109 16.1 38.6 1.52 1.65 1.65 79 1018.9
20260906183557 23 131 20.9 38.6 0.74 0.86 0.86 77 1018.6
20260906183114 23 114 9.7 25.7 0.18 0.30 0.30 78 1018.2
20260906182558 24 117 9.7 27.4 0.00 0.13 0.13 78 1018.3
20260906182056 25 105 12.9 27.4 0.00 0.13 0.13 79 1017.9
20260906181600 25 125 12.9 27.4 0.00 0.13 0.13 80 1017.5
20260906181058 25 119 11.3 19.3 0.00 0.13 0.13 81 1017.4
20260906180557 25 34 8.0 19.3 0.00 0.13 0.13 82 1017.5
20260906180119 25 117 6.4 19.3 0.00 0.13 0.13 84 1017.5
20260906175557 25 116 4.8 19.3 0.00 0.13 0.13 85 1017.5
20260906175057 25 94 4.8 19.3 0.00 0.13 0.13 86 1017.7
20260906174601 25 96 3.2 19.3 0.00 0.13 0.13 87 1017.8
20260906174057 25 136 3.2 12.9 0.00 0.13 0.13 88 1017.9
20260906173601 25 118 3.2 12.9 0.00 0.13 0.13 88 1017.8
20260906173116 25 82 4.8 12.9 0.00 0.13 0.13 89 1017.9
20260906172556 25 98 4.8 12.9 0.00 0.13 0.13 89 1017.9
20260906172100 25 105 3.2 9.7 0.00 0.13 0.13 90 1017.8
20260906171600 25 137 3.2 9.7 0.00 0.13 0.13 90 1017.8
20260906171055 25 150 1.6 9.7 0.00 0.13 0.13 90 1017.7
20260906170559 25 116 1.6 11.3 0.00 0.13 0.13 90 1017.5
20260906170126 25 119 3.2 12.9 0.00 0.13 0.13 90 1017.4
20260906165559 25 182 1.6 12.9 0.00 0.13 0.13 90 1017.5
20260906165058 25 202 3.2 12.9 0.00 0.13 0.13 90 1017.6
20260906164602 25 167 1.6 11.3 0.00 0.13 0.13 91 1017.7
20260906164059 25 117 3.2 11.3 0.00 0.13 0.13 91 1017.6
20260906163555 25 166 1.6 9.7 0.00 0.13 0.13 91 1017.6
20260906163101 25 144 1.6 17.7 0.03 0.13 0.13 91 1017.3
20260906162559 24 119 3.2 17.7 0.03 0.13 0.13 91 1017.3
20260906162056 24 81 3.2 11.3 0.03 0.13 0.13 91 1017.2
20260906161606 24 120 3.2 11.3 0.05 0.13 0.13 91 1017.2
20260906161059 24 104 1.6 11.3 0.13 0.13 0.13 91 1017.2
20260906160556 24 105 3.2 8.0 0.13 0.13 0.13 91 1017.1
20260906160104 24 0 3.2 8.0 0.13 0.13 0.13 91 1017.1
20260906155559 24 125 1.6 6.4 0.13 0.13 0.13 91 1017.1
20260906155058 24 131 3.2 9.7 0.13 0.13 0.13 91 1017.3
20260906154602 24 116 3.2 9.7 0.13 0.13 0.13 91 1017.3
20260906154059 24 119 1.6 12.9 0.13 0.13 0.13 91 1017.3
20260906153559 24 117 3.2 12.9 0.13 0.13 0.13 91 1017.2
20260906153101 24 146 3.2 8.0 0.10 0.10 0.10 91 1017.3
20260906152559 24 122 1.6 6.4 0.10 0.10 0.10 91 1017.4
20260906152059 24 0 1.6 11.3 0.10 0.10 0.10 91 1017.3
20260906151611 24 157 1.6 14.5 0.08 0.08 0.08 91 1017.4
20260906151059 24 122 4.8 14.5 0.00 0.00 0.00 91 1017.2
20260906150559 24 137 1.6 6.4 0.00 0.00 0.00 92 1017.4
20260906150107 24 90 1.6 11.3 0.00 0.00 0.00 92 1017.5
20260906145600 24 192 3.2 11.3 0.00 0.00 0.00 92 1017.4
20260906145100 24 139 1.6 6.4 0.00 0.00 0.00 92 1017.3
20260906144601 24 102 1.6 11.3 0.00 0.00 0.00 92 1017.2
20260906144058 24 125 3.2 12.9 0.00 0.00 0.00 92 1017.2
20260906143559 24 109 3.2 12.9 0.00 0.00 0.00 92 1017.1
20260906143130 24 113 3.2 12.9 0.00 0.00 0.00 92 1017.0
20260906142602 23 109 3.2 12.9 0.00 0.00 0.00 92 1017.0
20260906142057 23 157 3.2 12.9 0.00 0.00 0.00 92 1016.9
20260906141604 23 103 3.2 9.7 0.00 0.00 0.00 92 1017.0
20260906141059 23 117 3.2 9.7 0.00 0.00 0.00 92 1017.0
20260906140556 23 118 3.2 11.3 0.00 0.00 0.00 92 1017.0
20260906140108 23 162 3.2 20.9 0.00 0.00 0.00 92 1016.9
20260906135559 23 140 4.8 20.9 0.00 0.00 0.00 92 1016.9
20260906135101 23 121 3.2 12.9 0.00 0.00 0.00 92 1016.8
20260906134613 23 96 4.8 11.3 0.00 0.00 0.00 92 1016.9
20260906134057 23 134 3.2 9.7 0.00 0.00 0.00 92 1017.0
20260906133556 23 109 3.2 14.5 0.00 0.00 0.00 92 1017.0
20260906133108 23 111 3.2 14.5 0.00 0.00 0.00 92 1017.1
20260906132557 23 98 4.8 14.5 0.00 0.00 0.00 92 1017.0
20260906132059 23 118 3.2 9.7 0.00 0.00 0.00 92 1017.0
20260906131558 23 107 3.2 9.7 0.00 0.00 0.00 92 1017.1
20260906131056 23 98 3.2 11.3 0.00 0.00 0.00 92 1017.1
20260906130556 23 78 3.2 11.3 0.00 0.00 0.00 92 1017.2
20260906130115 23 133 3.2 9.7 0.00 0.00 0.00 92 1017.1
20260906125556 23 138 3.2 9.7 0.00 0.28 0.00 92 1017.2
20260906125100 23 144 3.2 9.7 0.00 0.28 0.00 92 1017.2
20260906124602 23 126 3.2 14.5 0.00 0.28 0.00 92 1017.1
20260906124100 23 153 3.2 14.5 0.00 0.28 0.00 92 1017.0
20260906123559 23 96 3.2 11.3 0.00 0.28 0.00 92 1016.8
20260906123137 23 104 4.8 11.3 0.00 0.28 0.00 92 1016.8
20260906122559 23 117 3.2 9.7 0.00 0.28 0.00 92 1016.7
20260906122101 23 88 4.8 12.9 0.00 0.28 0.00 92 1016.6
20260906121604 22 132 3.2 12.9 0.00 0.28 0.00 92 1016.5
20260906121059 22 148 3.2 11.3 0.00 0.28 0.00 92 1016.5
20260906120559 22 129 4.8 11.3 0.00 0.28 0.00 92 1016.3
20260906120109 22 113 3.2 9.7 0.00 0.28 0.00 92 1016.3
20260906115559 22 122 3.2 9.7 0.00 0.56 0.00 92 1016.3
20260906115055 22 122 4.8 12.9 0.00 0.56 0.00 92 1016.3
20260906114610 22 92 4.8 14.5 0.00 0.56 0.00 92 1016.2
20260906114058 22 105 3.2 14.5 0.00 0.56 0.00 92 1016.3
20260906113559 22 119 4.8 12.9 0.00 0.56 0.00 92 1016.3
20260906113101 22 122 4.8 9.7 0.00 0.56 0.00 92 1016.2
20260906112559 22 97 4.8 11.3 0.00 0.56 0.00 92 1016.2
20260906112059 22 98 4.8 11.3 0.00 0.56 0.00 91 1016.1
20260906111601 22 118 4.8 11.3 0.00 0.56 0.00 91 1016.1
20260906111059 22 110 4.8 11.3 0.00 0.56 0.00 91 1016.1
20260906110559 22 127 3.2 9.7 0.00 0.56 0.00 91 1016.1
20260906110100 22 103 3.2 8.0 0.00 0.56 0.00 91 1016.2
20260906105601 22 96 3.2 9.7 0.00 0.61 0.00 91 1016.3
20260906105058 22 108 3.2 9.7 0.00 0.61 0.00 91 1016.2
20260906104600 22 109 3.2 9.7 0.00 0.61 0.00 91 1016.1
20260906104056 22 100 3.2 9.7 0.00 0.61 0.00 91 1016.1
20260906103559 22 115 3.2 11.3 0.00 0.61 0.00 91 1016.1
20260906103101 22 74 3.2 11.3 0.00 0.61 0.00 91 1016.0
20260906102602 22 46 3.2 9.7 0.00 0.61 0.00 91 1016.1
20260906102058 22 128 3.2 9.7 0.00 0.61 0.00 91 1016.0
20260906101601 22 96 3.2 9.7 0.00 0.61 0.00 91 1016.0
20260906101058 22 75 3.2 9.7 0.00 0.61 0.00 90 1016.0
20260906100558 22 97 3.2 9.7 0.00 0.61 0.00 91 1016.1
20260906100106 22 106 3.2 9.7 0.00 0.61 0.00 90 1016.1
20260906095600 22 82 3.2 6.4 0.00 0.61 0.00 90 1016.1
20260906095059 22 96 3.2 6.4 0.00 0.61 0.00 90 1016.1
20260906094608 21 86 1.6 6.4 0.00 0.61 0.00 90 1016.2
20260906094059 21 97 1.6 4.8 0.00 0.61 0.00 90 1016.1
20260906093559 21 77 1.6 6.4 0.00 0.61 0.00 90 1016.1
20260906093102 21 102 1.6 6.4 0.00 0.61 0.00 90 1016.1
20260906092559 21 90 1.6 4.8 0.00 0.61 0.00 90 1016.2
20260906092059 21 0 1.6 6.4 0.00 0.61 0.00 90 1016.3
20260906091608 21 120 1.6 6.4 0.00 0.61 0.00 90 1016.3
20260906091056 21 113 1.6 4.8 0.00 0.61 0.00 90 1016.3
20260906090559 21 122 1.6 6.4 0.00 0.61 0.00 89 1016.3
20260906085558 21 115 3.2 6.4 0.00 0.61 0.00 89 1016.3
20260906085059 21 87 3.2 4.8 0.00 0.61 0.00 89 1016.2
20260906084607 22 112 1.6 4.8 0.00 0.61 0.00 89 1016.2
20260906084056 22 85 1.6 4.8 0.00 0.61 0.00 89 1016.0
20260906083559 22 101 1.6 4.8 0.00 0.61 0.00 89 1015.8
20260906083105 22 80 1.6 4.8 0.00 0.61 0.00 89 1015.7
20260906082555 22 98 3.2 6.4 0.00 0.61 0.00 89 1015.6
20260906082055 22 110 3.2 6.4 0.00 0.61 0.00 89 1015.6
20260906081602 22 96 1.6 6.4 0.00 0.61 0.00 89 1015.5
20260906081055 22 107 1.6 6.4 0.00 0.61 0.00 89 1015.6
20260906080559 22 119 1.6 8.0 0.00 0.61 0.00 89 1015.6
20260906080103 22 138 3.2 8.0 0.00 0.61 0.00 89 1015.5
20260906075600 22 113 3.2 8.0 0.00 0.61 0.00 89 1015.4
20260906075059 22 121 3.2 9.7 0.00 0.61 0.00 89 1015.4
20260906074607 22 117 3.2 9.7 0.00 0.61 0.00 89 1015.5
20260906074056 22 123 4.8 9.7 0.00 0.61 0.00 89 1015.5
20260906073600 22 107 3.2 9.7 0.00 0.61 0.00 89 1015.6
20260906073105 22 104 3.2 9.7 0.00 0.61 0.00 89 1015.6
20260906072559 22 107 3.2 11.3 0.00 0.61 0.00 89 1015.7
20260906072059 22 90 3.2 11.3 0.00 0.61 0.00 89 1015.8
20260906071600 21 101 3.2 9.7 0.00 0.61 0.00 89 1015.8
20260906071058 21 100 3.2 9.7 0.00 0.61 0.00 89 1015.7
20260906070559 21 100 3.2 9.7 0.00 0.61 0.00 88 1015.7
20260906070103 21 90 4.8 9.7 0.00 0.61 0.00 88 1015.7
20260906065555 21 91 3.2 8.0 0.00 0.61 0.00 88 1015.8
20260906065058 21 109 3.2 11.3 0.00 0.61 0.00 88 1015.9
20260906064602 21 100 3.2 11.3 0.00 0.61 0.00 88 1016.1
20260906064057 21 104 3.2 9.7 0.00 0.61 0.00 87 1016.1
20260906063558 21 77 3.2 9.7 0.00 0.61 0.00 87 1016.2
20260906063103 21 80 3.2 9.7 0.00 0.61 0.00 87 1016.1
20260906062558 21 96 1.6 6.4 0.00 0.61 0.00 87 1016.2
20260906062059 21 90 1.6 6.4 0.00 0.61 0.00 86 1016.2
20260906061603 21 90 1.6 9.7 0.00 0.61 0.00 86 1016.2
20260906061058 21 130 3.2 9.7 0.00 0.61 0.00 86 1016.1
20260906060559 21 106 3.2 6.4 0.00 0.61 0.00 86 1016.1
20260906060104 21 96 3.2 6.4 0.00 0.61 0.00 85 1016.1
20260906055559 21 96 1.6 4.8 0.00 0.61 0.00 85 1016.1
20260906055101 21 0 1.6 4.8 0.00 0.61 0.00 85 1016.2
20260906054601 21 123 1.6 4.8 0.00 0.61 0.00 85 1016.1
20260906054059 21 92 1.6 4.8 0.00 0.61 0.00 85 1016.2
20260906053558 21 98 1.6 4.8 0.00 0.61 0.00 85 1016.3
20260906053110 21 88 0.0 4.8 0.00 0.61 0.00 84 1016.3
20260906052559 21 105 0.0 3.2 0.00 0.61 0.00 84 1016.3
20260906052059 21 84 1.6 3.2 0.00 0.61 0.00 84 1016.3
20260906051605 21 90 0.0 3.2 0.00 0.61 0.00 84 1016.3
20260906051058 21 92 1.6 3.2 0.00 0.61 0.00 84 1016.3
20260906050600 21 101 1.6 3.2 0.00 0.61 0.00 85 1016.3
20260906050059 21 101 0.0 3.2 0.00 0.61 0.00 84 1016.3
20260906045559 21 101 1.6 3.2 0.00 0.61 0.61 84 1016.4
20260906045056 21 101 1.6 3.2 0.00 0.61 0.61 84 1016.3
20260906044601 21 115 1.6 4.8 0.00 0.61 0.61 84 1016.3
20260906044058 21 109 1.6 4.8 0.00 0.61 0.61 84 1016.3
20260906043559 21 0 1.6 6.4 0.00 0.61 0.61 84 1016.4
20260906043104 21 124 1.6 6.4 0.00 0.61 0.61 83 1016.4
20260906042602 22 119 1.6 4.8 0.00 0.61 0.61 83 1016.4
20260906042059 22 119 3.2 6.4 0.00 0.61 0.61 83 1016.5
20260906041603 22 95 3.2 6.4 0.00 0.61 0.61 83 1016.4
20260906041059 22 115 1.6 4.8 0.00 0.61 0.61 83 1016.4
20260906040602 22 87 1.6 4.8 0.00 0.61 0.61 82 1016.5
20260906040110 22 87 1.6 4.8 0.00 0.61 0.61 81 1016.5
20260906035558 22 89 1.6 3.2 0.00 0.61 0.61 81 1016.4
20260906035103 22 87 1.6 3.2 0.00 0.61 0.61 81 1016.3
20260906034607 22 101 1.6 3.2 0.00 0.61 0.61 81 1016.4
20260906034059 22 101 1.6 4.8 0.00 0.61 0.61 81 1016.4
20260906033559 22 101 1.6 4.8 0.00 0.61 0.61 81 1016.3
20260906033111 22 105 1.6 4.8 0.00 0.61 0.61 80 1016.3
20260906032558 22 85 1.6 3.2 0.00 0.61 0.61 80 1016.3
20260906032058 22 89 1.6 4.8 0.00 0.61 0.61 80 1016.3
20260906031614 22 100 1.6 4.8 0.00 0.61 0.61 80 1016.3
20260906031102 22 75 1.6 4.8 0.00 0.61 0.61 79 1016.3
20260906030559 23 79 1.6 4.8 0.00 0.61 0.61 79 1016.2
20260906030100 23 101 1.6 4.8 0.00 0.61 0.61 79 1016.2
20260906025559 23 99 1.6 4.8 0.00 0.61 0.61 78 1016.2
20260906025059 23 119 1.6 6.4 0.00 0.61 0.61 78 1016.2
20260906024601 23 107 3.2 9.7 0.00 0.61 0.61 78 1016.2
20260906024102 23 112 3.2 11.3 0.00 0.61 0.61 78 1016.2
20260906023559 23 119 3.2 11.3 0.00 0.61 0.61 77 1016.1
20260906023104 23 109 3.2 6.4 0.00 0.61 0.61 76 1016.1
20260906022555 23 107 1.6 4.8 0.00 0.61 0.61 76 1016.1
20260906022102 23 104 1.6 4.8 0.00 0.61 0.61 75 1016.0
20260906021605 23 103 1.6 4.8 0.00 0.61 0.61 75 1015.9
20260906021058 24 103 1.6 4.8 0.00 0.61 0.61 74 1015.8
20260906020555 24 99 1.6 4.8 0.00 0.61 0.61 74 1015.8
20260906020125 24 93 1.6 4.8 0.00 0.61 0.61 73 1015.7
20260906015556 25 93 1.6 4.8 0.00 0.61 0.61 73 1015.7
20260906015059 25 89 1.6 9.7 0.00 0.61 0.61 72 1015.8
20260906014604 25 95 3.2 9.7 0.00 0.61 0.61 72 1015.8
20260906014059 25 92 3.2 6.4 0.00 0.61 0.61 71 1015.8
20260906013601 25 97 3.2 6.4 0.00 0.61 0.61 71 1015.8
20260906013111 26 104 3.2 6.4 0.00 0.61 0.61 70 1015.8
20260906012559 26 88 1.6 6.4 0.00 0.61 0.61 69 1015.7
20260906012058 26 94 3.2 6.4 0.00 0.61 0.61 68 1015.7
20260906011609 26 98 1.6 4.8 0.00 0.61 0.61 68 1015.7
20260906011055 27 103 1.6 4.8 0.00 0.61 0.61 67 1015.8
20260906010600 27 93 1.6 4.8 0.00 0.61 0.61 66 1015.7
20260906005558 27 126 3.2 6.4 0.00 0.61 0.61 64 1015.6
20260906005059 27 91 1.6 4.8 0.00 0.61 0.61 63 1015.7
20260906004609 28 96 1.6 4.8 0.00 0.61 0.61 63 1015.6
20260906004059 28 103 1.6 4.8 0.00 0.61 0.61 62 1015.7
20260906003558 28 97 3.2 4.8 0.00 0.61 0.61 61 1015.7
20260906003106 28 82 1.6 11.3 0.00 0.61 0.61 60 1015.6
20260906002559 28 103 3.2 12.9 0.00 0.61 0.61 59 1015.5
20260906002055 29 90 4.8 12.9 0.00 0.61 0.61 59 1015.4
20260906001604 29 120 4.8 11.3 0.00 0.61 0.61 59 1015.3
20260906001057 29 107 4.8 11.3 0.00 0.61 0.61 60 1015.1
20260906000559 29 111 4.8 12.9 0.00 0.61 0.61 59 1015.1
20260906000107 30 115 4.8 16.1 0.00 0.61 0.61 59 1015.0
20260905235556 30 111 6.4 16.1 0.00 0.61 0.61 58 1015.0
20260905235059 30 175 4.8 16.1 0.00 0.61 0.61 57 1014.9
20260905234604 30 126 6.4 17.7 0.00 0.61 0.61 56 1015.0
20260905234056 30 107 8.0 17.7 0.00 0.61 0.61 55 1015.0
20260905233559 30 129 6.4 16.1 0.00 0.61 0.61 55 1014.9
20260905233103 30 131 6.4 16.1 0.00 0.61 0.61 54 1014.9
20260905232555 30 128 4.8 12.9 0.00 0.61 0.61 53 1014.8
20260905232059 31 142 3.2 17.7 0.00 0.61 0.61 54 1014.7
20260905231603 31 137 6.4 17.7 0.00 0.61 0.61 54 1014.7
20260905231055 31 112 6.4 22.5 0.00 0.61 0.61 53 1014.7
20260905230556 31 132 8.0 22.5 0.00 0.61 0.61 52 1014.6
20260905225558 31 141 8.0 16.1 0.00 0.61 0.61 50 1014.7
20260905225058 31 130 6.4 12.9 0.00 0.61 0.61 50 1014.5
20260905224603 31 178 4.8 14.5 0.00 0.61 0.61 50 1014.6
20260905224055 31 126 3.2 14.5 0.00 0.61 0.61 49 1014.6
20260905223558 31 169 3.2 14.5 0.00 0.61 0.61 49 1014.8
20260905223106 31 166 1.6 11.3 0.00 0.61 0.61 48 1014.9
20260905222558 31 138 3.2 14.5 0.00 0.61 0.61 49 1014.9
20260905222058 31 189 3.2 14.5 0.00 0.61 0.61 48 1014.9
20260905221603 31 115 4.8 16.1 0.00 0.61 0.61 47 1014.8
20260905221056 31 151 6.4 16.1 0.00 0.61 0.61 47 1014.7
20260905220558 31 155 4.8 14.5 0.00 0.61 0.61 48 1014.6
20260905220106 31 236 3.2 12.9 0.00 0.61 0.61 48 1014.6
20260905215600 31 150 3.2 14.5 0.00 0.61 0.61 48 1014.6
20260905215102 31 142 3.2 14.5 0.00 0.61 0.61 48 1014.5
20260905214604 31 119 4.8 14.5 0.00 0.61 0.61 48 1014.5
20260905214059 31 182 4.8 11.3 0.00 0.61 0.61 47 1014.5
20260905213601 31 167 4.8 11.3 0.00 0.61 0.61 48 1014.3
20260905213111 31 143 3.2 11.3 0.00 0.61 0.61 47 1014.3
20260905212556 31 195 4.8 14.5 0.00 0.61 0.61 48 1014.3
20260905212055 31 129 4.8 14.5 0.00 0.61 0.61 48 1014.5
20260905211601 32 128 6.4 16.1 0.00 0.61 0.61 47 1014.5
20260905211056 32 171 4.8 16.1 0.00 0.61 0.61 48 1014.5
20260905210557 32 100 8.0 19.3 0.00 0.61 0.61 47 1014.4
20260905210123 32 138 6.4 19.3 0.00 0.61 0.61 47 1014.4
20260905205555 32 124 6.4 14.5 0.00 0.61 0.61 47 1014.4
20260905205101 32 90 4.8 17.7 0.00 0.61 0.61 48 1014.4
20260905204606 32 108 6.4 17.7 0.00 0.61 0.61 48 1014.4
20260905204059 32 132 6.4 17.7 0.00 0.61 0.61 47 1014.3
20260905203559 32 94 4.8 16.1 0.00 0.61 0.61 47 1014.3
20260905203108 32 128 6.4 16.1 0.00 0.61 0.61 48 1014.3
20260905202558 32 92 6.4 17.7 0.00 0.61 0.61 49 1014.4
20260905202059 32 67 8.0 17.7 0.00 0.61 0.61 48 1014.5
20260905201603 32 119 6.4 12.9 0.00 0.61 0.61 50 1014.5
20260905201059 31 108 4.8 16.1 0.00 0.61 0.61 49 1014.5
20260905200555 31 132 4.8 16.1 0.00 0.61 0.61 51 1014.5
20260905200112 31 118 6.4 16.1 0.00 0.61 0.61 48 1014.6
20260905195556 31 118 4.8 14.5 0.00 0.61 0.61 49 1014.5
20260905195058 31 88 6.4 14.5 0.00 0.61 0.61 49 1014.5
20260905194616 31 158 4.8 14.5 0.00 0.61 0.61 52 1014.5
20260905194056 31 133 6.4 14.5 0.00 0.61 0.61 55 1014.5
20260905193556 31 92 4.8 11.3 0.00 0.61 0.61 54 1014.5